Wainwright, AK

1:40 AM AKST on January 24, 2017 (GMT -0900)
Wainwright

Weather History for PAWI - April, 2013

Change the Weather History Date:

Wednesday, April 3, 2013

  Actual Average (PABR) Record (PABR)
Temperature  
Mean Temperature -11 °F -  
Max Temperature -4 °F -2 °F 32 °F (1948)
Min Temperature -18 °F -16 °F -35 °F (1944)
Degree Days  
Heating Degree Days 76    
Moisture  
Dew Point -18 °F    
Average Humidity 75    
Maximum Humidity 78    
Minimum Humidity 70    
Precipitation  
Precipitation 0.00 in - - ()
Sea Level Pressure  
Sea Level Pressure 30.82 in    
Wind  
Wind Speed 13 mph (ENE)    
Max Wind Speed 16 mph    
Max Gust Speed -    
Visibility 5 miles    
Events      
Averages and records for this station are not official NWS values.
T = Trace of Precipitation, MM = Missing Value Source: NWS Daily Summary

Daily Weather History Graph

Daily Weather History Graph

Search for Another Location

Airport or City:

Trip Planner

Search our weather history database for the weather conditions in past years. The results will help you decide how hot, cold, wet, or windy it might be!

Date:

Astronomy

Apr. 03, 2013 Rise Set
Actual Time 7:28 AM AKDT 10:00 PM AKDT
Civil Twilight 6:18 AM AKDT 11:11 PM AKDT
Nautical Twilight 4:24 AM AKDT 1:10 AM AKDT
Astronomical Twilight Sun does not rise Sun does not rise
Moon 7:29 AM AKDT (4/3) 11:20 AM AKDT (4/3)
Length of Visible Light 16h 53m
Length of Day
14h 31m
Last Quarter, 43% of the Moon is Illuminated
Apr 3
Last Quarter
Apr 10
New
Apr 18
First Quarter
Apr 25
Full
May 2
Last Quarter

Hourly Weather History & Observations

Time (AKDT) Temp. Windchill Dew Point Humidity Pressure Visibility Wind Dir Wind Speed Gust Speed Precip Events Conditions
12:53 AM -13.0 °F -35.2 °F -18.9 °F 75% 30.74 in 4.0 mi ENE 13.8 mph - N/A   Haze
1:53 AM -14.1 °F -36.6 °F -20.0 °F 75% 30.75 in 3.0 mi East 13.8 mph - N/A   Haze
2:04 AM -14.8 °F -38.3 °F -20.2 °F 77% 30.74 in 2.5 mi ENE 15.0 mph - N/A   Haze
2:53 AM -14.1 °F -36.6 °F -20.0 °F 75% 30.76 in 2.5 mi ENE 13.8 mph - N/A   Haze
3:21 AM -14.8 °F -36.6 °F -20.2 °F 77% 30.76 in 3.0 mi ENE 12.7 mph - N/A   Haze
3:53 AM -15.0 °F -35.9 °F -20.9 °F 75% 30.76 in 4.0 mi ENE 11.5 mph - N/A   Haze
4:05 AM -14.8 °F -33.5 °F -20.2 °F 77% 30.76 in 4.0 mi ENE 9.2 mph - N/A   Haze
4:53 AM -16.1 °F -36.2 °F -22.0 °F 74% 30.77 in 10.0 mi ENE 10.4 mph - N/A   Clear
5:53 AM -17.0 °F -39.3 °F -23.1 °F 74% 30.78 in 10.0 mi ENE 12.7 mph - N/A   Clear
6:53 AM -18.0 °F -37.5 °F -23.1 °F 78% 30.79 in 10.0 mi ENE 9.2 mph - N/A   Clear
7:53 AM -18.0 °F -39.7 °F -24.0 °F 74% 30.79 in 1.5 mi East 11.5 mph - N/A   Haze
8:23 AM -18.4 °F -39.1 °F -23.8 °F 76% 30.79 in 2.5 mi East 10.4 mph - N/A   Haze
8:34 AM -18.4 °F -40.2 °F -23.8 °F 76% 30.79 in 2.5 mi East 11.5 mph - N/A   Haze
8:50 AM -18.4 °F -39.1 °F -23.8 °F 76% 30.79 in 4.0 mi East 10.4 mph - N/A   Haze
8:53 AM -18.0 °F -38.6 °F -24.0 °F 74% 30.80 in 4.0 mi East 10.4 mph - N/A   Haze
9:53 AM -17.0 °F -36.1 °F -22.0 °F 78% 30.81 in 10.0 mi East 9.2 mph - N/A   Clear
10:53 AM -15.0 °F -35.9 °F -20.9 °F 75% 30.82 in 2.5 mi ENE 11.5 mph - N/A   Haze
11:08 AM -14.8 °F -35.6 °F -20.2 °F 77% 30.82 in 2.0 mi ENE 11.5 mph - N/A   Haze
11:25 AM -14.8 °F -36.6 °F -20.2 °F 77% 30.82 in 1.8 mi ENE 12.7 mph - N/A   Haze
11:44 AM -13.0 °F -31.3 °F -18.4 °F 77% 30.82 in 2.0 mi NE 9.2 mph - N/A   Haze
11:53 AM -13.0 °F -33.4 °F -18.9 °F 75% 30.83 in 2.5 mi ENE 11.5 mph - N/A   Haze
12:06 PM -11.2 °F -32.1 °F -18.4 °F 70% 30.83 in 4.0 mi ENE 12.7 mph - N/A   Haze
12:14 PM -11.2 °F -32.1 °F -18.4 °F 70% 30.83 in 6.0 mi ENE 12.7 mph - N/A   Haze
12:53 PM -11.0 °F -31.8 °F -17.0 °F 75% 30.84 in 6.0 mi NE 12.7 mph - N/A   Haze
1:08 PM -9.4 °F -29.8 °F -16.6 °F 71% 30.84 in 2.5 mi NE 12.7 mph - N/A   Haze
1:53 PM -9.0 °F -28.4 °F -15.0 °F 75% 30.85 in 3.0 mi ENE 11.5 mph - N/A   Haze
2:53 PM -7.1 °F -26.8 °F -13.0 °F 75% 30.85 in 3.0 mi ENE 12.7 mph - N/A   Haze
3:00 PM -5.8 °F -25.2 °F -13.0 °F 71% 30.85 in 2.5 mi ENE 12.7 mph - N/A   Haze
3:10 PM -5.8 °F -25.2 °F -11.2 °F 77% 30.85 in 4.0 mi ENE 12.7 mph - N/A   Haze
3:31 PM -5.8 °F -24.4 °F -11.2 °F 77% 30.85 in 6.0 mi ENE 11.5 mph - N/A   Haze
3:53 PM -5.1 °F -25.9 °F -11.0 °F 76% 30.85 in 10.0 mi ENE 15.0 mph - N/A   Clear
4:53 PM -4.0 °F -25.2 °F -9.9 °F 76% 30.85 in 9.0 mi ENE 16.1 mph - N/A   Clear
5:53 PM -4.0 °F -25.2 °F -11.0 °F 72% 30.85 in 10.0 mi ENE 16.1 mph - N/A   Clear
6:53 PM -5.1 °F -26.6 °F -11.0 °F 76% 30.86 in 10.0 mi ENE 16.1 mph - N/A   Clear
7:53 PM -6.0 °F -25.5 °F -11.9 °F 75% 30.86 in 10.0 mi ENE 12.7 mph - N/A   Clear
8:53 PM -8.0 °F -29.6 °F -14.1 °F 75% 30.85 in 10.0 mi ENE 15.0 mph - N/A   Clear
9:53 PM -9.0 °F -29.3 °F -15.0 °F 75% 30.85 in 4.0 mi ENE 12.7 mph - N/A   Haze
10:29 PM -9.4 °F -32.1 °F -16.6 °F 71% 30.85 in 2.0 mi ENE 16.1 mph - N/A   Haze
10:33 PM -9.4 °F -32.1 °F -14.8 °F 77% 30.85 in 1.8 mi ENE 16.1 mph - N/A   Haze
10:46 PM -9.4 °F -31.4 °F -14.8 °F 77% 30.85 in 2.5 mi ENE 15.0 mph - N/A   Haze
10:53 PM -9.0 °F -30.9 °F -15.0 °F 75% 30.86 in 3.0 mi ENE 15.0 mph - N/A   Haze
11:32 PM -9.4 °F -30.6 °F -14.8 °F 77% 30.86 in 3.0 mi ENE 13.8 mph - N/A   Haze
11:42 PM -9.4 °F -28.9 °F -14.8 °F 77% 30.86 in 3.0 mi East 11.5 mph - N/A   Haze
11:53 PM -9.0 °F -29.3 °F -15.0 °F 75% 30.87 in 3.0 mi East 12.7 mph - N/A   Haze